COSMOS 2251 DEB, 36369

Orbit data source: Space-Track

COSMOS 2251 DEB, 36369 is space debris in LEO originally from a launch on Wed, 16 Jun 1993 UTC launched from the Plesetsk Missile And Space Complex (PKMTR). The debris from Iridium 33, an American commercial communications satellite, has been tracked extensively since its accidental collision with the defunct Russian satellite Cosmos 2251 in 2009. This event, occurring at high speed in low Earth orbit (LEO), generated thousands of pieces of space debris, significantly increasing the risk of further collisions. The Iridium 33 debris cloud has impacted space traffic management and orbital debris mitigation strategies, making it a subject of ongoing study in space situational awareness.

Loading next visibility...
Identifier
36369, 1993-036AYW
Orbit
LEO
Country
Flag of CISCIS
Related business
Manufacturer
Unknown
Mission
Spacecraft
Bus & Motor
Unknown
Mass
Unknown
Launch date (UTC)
1993-06-16 (33 years ago)
Launch vehicle
Unknown
Launch site
Plesetsk Missile And Space Complex (PKMTR)
Object type
Payload
Rocket body
Debris
Shape & HBR
Unknown shape, 0.1 m
Radar Cross Section
Small (<0.1 m²)

Expand to show TLE details & history
Last TLE update: 3 days ago

TLE from 3 days ago
0 COSMOS 2251 DEB
1 36369U 93036AYW 25350.47888396  .00005781  00000-0  89049-3 0  9990
2 36369  74.0316  63.4356 0010982 140.0370 220.1613 14.73629062859773
Epoch: 2025-12-16T11:29Z
TLE epoch observation values (Epoch: 2025-12-16T11:29:35.574Z)
Latitude
-0.00002°
Longitude
165.67486°
Altitude
658.066 km
Speed
7.525 km/s
True Right ascension
04h 13m 44s
True Declination
0° 00' 00"
Sunlit
Object was in full shadow at epoch
Visualization orbit readout
Latitude
Unknown
Longitude
Unknown
Altitude
Unknown
Speed
Unknown
Apparent Right ascension
Unknown
Apparent Declination
Unknown
Sunlit
N/A
Visualization observer readout
Local Sidereal Time
02:22:16
Azimuth
Unknown
Elevation
Unknown
Doppler factor
Unknown
Orbital elements
Apogee altitude
654.805 km
Perigee altitude
639.374 km
Semi-major axis
7,025.226 km
Eccentricity
0.0011
Inclination
74.0316°
RAAN
63.4356°
Arg. of periapsis
140.037°
True anomaly
220.08022°
Mean anomaly
220.1613°
Eccentric anomaly
220.12075°
Mean motion
3.68598 °/min
Orbital period
97.67 mins
BSTAR
0.00089049

Documentation

Showing up to 5 results
|